Year,Month,Day,Hour,Minute,Value (Times are PST for windspeed in km/hr)
2008,06,11,00,00,5.50
2008,06,11,00,01,6.50
2008,06,11,00,02,7.90
2008,06,11,00,03,6.60
2008,06,11,00,04,6.30
2008,06,11,00,05,7.70
2008,06,11,00,06,4.90
2008,06,11,00,07,7.10
2008,06,11,00,08,3.90
2008,06,11,00,09,4.80
2008,06,11,00,10,3.50
2008,06,11,00,11,9.10
2008,06,11,00,12,5.80
2008,06,11,00,13,2.50
2008,06,11,00,14,4.50
2008,06,11,00,15,4.80
2008,06,11,00,16,6.00
2008,06,11,00,17,4.40
2008,06,11,00,18,5.20
2008,06,11,00,19,4.40
2008,06,11,00,20,4.30
2008,06,11,00,21,4.30
2008,06,11,00,22,4.60
2008,06,11,00,23,5.30
2008,06,11,00,24,4.50
2008,06,11,00,25,6.00
2008,06,11,00,26,6.40
2008,06,11,00,27,3.90
2008,06,11,00,28,5.00
2008,06,11,00,29,5.10
2008,06,11,00,30,6.70
2008,06,11,00,31,5.60
2008,06,11,00,32,5.60
2008,06,11,00,33,5.60
2008,06,11,00,34,6.90
2008,06,11,00,35,6.60
2008,06,11,00,36,5.60
2008,06,11,00,37,6.40
2008,06,11,00,38,5.80
2008,06,11,00,39,6.80
2008,06,11,00,40,6.30
2008,06,11,00,41,6.80
2008,06,11,00,42,5.50
2008,06,11,00,43,5.50
2008,06,11,00,44,4.90
2008,06,11,00,45,5.60
2008,06,11,00,46,5.40
2008,06,11,00,47,7.90
2008,06,11,00,48,6.00
2008,06,11,00,49,5.00
2008,06,11,00,50,8.80
2008,06,11,00,51,6.30
2008,06,11,00,52,6.20
2008,06,11,00,53,4.80
2008,06,11,00,54,4.20
2008,06,11,00,55,7.30
2008,06,11,00,56,6.80
2008,06,11,00,57,4.80
2008,06,11,00,58,4.40
2008,06,11,00,59,5.80
2008,06,11,01,00,4.20
2008,06,11,01,01,5.50
2008,06,11,01,02,3.40
2008,06,11,01,03,4.80
2008,06,11,01,04,6.30
2008,06,11,01,05,9.40
2008,06,11,01,06,5.60
2008,06,11,01,07,4.80
2008,06,11,01,08,4.80
2008,06,11,01,09,6.00
2008,06,11,01,10,3.90
2008,06,11,01,11,5.00
2008,06,11,01,12,4.80
2008,06,11,01,13,3.30
2008,06,11,01,14,4.40
2008,06,11,01,15,5.20
2008,06,11,01,16,5.40
2008,06,11,01,17,5.40
2008,06,11,01,18,5.40
2008,06,11,01,19,5.60
2008,06,11,01,20,5.60
2008,06,11,01,21,4.80
2008,06,11,01,22,5.00
2008,06,11,01,23,5.10
2008,06,11,01,24,6.10
2008,06,11,01,25,3.10
2008,06,11,01,26,3.30
2008,06,11,01,27,4.80
2008,06,11,01,28,3.40
2008,06,11,01,29,4.70
2008,06,11,01,30,5.50
2008,06,11,01,31,6.40
2008,06,11,01,32,6.30
2008,06,11,01,33,7.50
2008,06,11,01,34,5.90
2008,06,11,01,35,6.40
2008,06,11,01,36,5.50
2008,06,11,01,37,4.00
2008,06,11,01,38,7.50
2008,06,11,01,39,5.10
2008,06,11,01,40,7.40
2008,06,11,01,41,6.10
2008,06,11,01,42,4.30
2008,06,11,01,43,7.60
2008,06,11,01,44,4.90
2008,06,11,01,45,3.70
2008,06,11,01,46,3.10
2008,06,11,01,47,2.10
2008,06,11,01,48,3.40
2008,06,11,01,49,3.80
2008,06,11,01,50,5.50
2008,06,11,01,51,3.90
2008,06,11,01,52,4.10
2008,06,11,01,53,2.70
2008,06,11,01,54,4.30
2008,06,11,01,55,5.20
2008,06,11,01,56,5.70
2008,06,11,01,57,4.40
2008,06,11,01,58,4.70
2008,06,11,01,59,3.40
2008,06,11,02,00,3.80
2008,06,11,02,01,3.40
2008,06,11,02,02,4.30
2008,06,11,02,03,2.60
2008,06,11,02,04,2.30
2008,06,11,02,05,4.40
2008,06,11,02,06,3.40
2008,06,11,02,07,4.30
2008,06,11,02,08,5.10
2008,06,11,02,09,5.40
2008,06,11,02,10,6.00
2008,06,11,02,11,5.50
2008,06,11,02,12,3.20
2008,06,11,02,13,5.50
2008,06,11,02,14,7.30
2008,06,11,02,15,5.90
2008,06,11,02,16,3.70
2008,06,11,02,17,1.50
2008,06,11,02,18,3.40
2008,06,11,02,19,3.90
2008,06,11,02,20,4.20
2008,06,11,02,21,6.10
2008,06,11,02,22,6.10
2008,06,11,02,23,8.40
2008,06,11,02,24,3.80
2008,06,11,02,25,5.00
2008,06,11,02,26,3.50
2008,06,11,02,27,5.50
2008,06,11,02,28,7.70
2008,06,11,02,29,7.30
2008,06,11,02,30,4.90
2008,06,11,02,31,6.00
2008,06,11,02,32,6.20
2008,06,11,02,33,5.60
2008,06,11,02,34,5.40
2008,06,11,02,35,7.60
2008,06,11,02,36,9.50
2008,06,11,02,37,5.60
2008,06,11,02,38,4.80
2008,06,11,02,39,3.90
2008,06,11,02,40,6.60
2008,06,11,02,41,5.50
2008,06,11,02,42,8.60
2008,06,11,02,43,7.20
2008,06,11,02,44,5.40
2008,06,11,02,45,6.50
2008,06,11,02,46,6.10
2008,06,11,02,47,6.40
2008,06,11,02,48,5.30
2008,06,11,02,49,9.60
2008,06,11,02,50,6.90
2008,06,11,02,51,5.40
2008,06,11,02,52,5.50
2008,06,11,02,53,4.30
2008,06,11,02,54,5.80
2008,06,11,02,55,5.00
2008,06,11,02,56,6.90
2008,06,11,02,57,5.70
2008,06,11,02,58,6.30
2008,06,11,02,59,6.30
2008,06,11,03,00,3.80
2008,06,11,03,01,6.60
2008,06,11,03,02,5.70
2008,06,11,03,03,6.80
2008,06,11,03,04,5.30
2008,06,11,03,05,4.70
2008,06,11,03,06,4.40
2008,06,11,03,07,6.20
2008,06,11,03,08,7.70
2008,06,11,03,09,7.70
2008,06,11,03,10,6.10
2008,06,11,03,11,5.20
2008,06,11,03,12,7.40
2008,06,11,03,13,7.10
2008,06,11,03,14,5.10
2008,06,11,03,15,7.40
2008,06,11,03,16,6.40
2008,06,11,03,17,8.10
2008,06,11,03,18,6.20
2008,06,11,03,19,6.00
2008,06,11,03,20,6.30
2008,06,11,03,21,5.10
2008,06,11,03,22,6.80
2008,06,11,03,23,5.90
2008,06,11,03,24,5.40
2008,06,11,03,25,5.40
2008,06,11,03,26,5.10
2008,06,11,03,27,4.40
2008,06,11,03,28,4.00
2008,06,11,03,29,5.60
2008,06,11,03,30,4.70
2008,06,11,03,31,4.80
2008,06,11,03,32,8.40
2008,06,11,03,33,6.50
2008,06,11,03,34,4.30
2008,06,11,03,35,5.80
2008,06,11,03,36,5.70
2008,06,11,03,37,4.50
2008,06,11,03,38,7.30
2008,06,11,03,39,5.50
2008,06,11,03,40,4.90
2008,06,11,03,41,5.10
2008,06,11,03,42,4.90
2008,06,11,03,43,5.20
2008,06,11,03,44,6.30
2008,06,11,03,45,4.80
2008,06,11,03,46,6.00
2008,06,11,03,47,5.60
2008,06,11,03,48,6.30
2008,06,11,03,49,5.90
2008,06,11,03,50,4.50
2008,06,11,03,51,5.50
2008,06,11,03,52,6.30
2008,06,11,03,53,5.90
2008,06,11,03,54,6.10
2008,06,11,03,55,6.50
2008,06,11,03,56,3.80
2008,06,11,03,57,4.70
2008,06,11,03,58,5.00
2008,06,11,03,59,3.50
2008,06,11,04,00,6.30
2008,06,11,04,01,4.50
2008,06,11,04,02,2.80
2008,06,11,04,03,3.90
2008,06,11,04,04,3.30
2008,06,11,04,05,3.10
2008,06,11,04,06,4.30
2008,06,11,04,07,3.80
2008,06,11,04,08,3.90
2008,06,11,04,09,3.70
2008,06,11,04,10,3.70
2008,06,11,04,11,3.90
2008,06,11,04,12,3.50
2008,06,11,04,13,3.50
2008,06,11,04,14,3.00
2008,06,11,04,15,4.10
2008,06,11,04,16,3.80
2008,06,11,04,17,2.70
2008,06,11,04,18,0.90
2008,06,11,04,19,1.20
2008,06,11,04,20,1.70
2008,06,11,04,21,2.10
2008,06,11,04,22,3.70
2008,06,11,04,23,3.10
2008,06,11,04,24,4.80
2008,06,11,04,25,3.30
2008,06,11,04,26,1.10
2008,06,11,04,27,4.70
2008,06,11,04,28,4.40
2008,06,11,04,29,2.50
2008,06,11,04,30,2.10
2008,06,11,04,31,4.00
2008,06,11,04,32,2.10
2008,06,11,04,33,0.30
2008,06,11,04,34,2.60
2008,06,11,04,35,3.80
2008,06,11,04,36,3.80
2008,06,11,04,37,3.80
2008,06,11,04,38,3.40
2008,06,11,04,39,2.50
2008,06,11,04,40,1.70
2008,06,11,04,41,3.00
2008,06,11,04,42,1.50
2008,06,11,04,43,2.40
2008,06,11,04,44,2.20
2008,06,11,04,45,3.40
2008,06,11,04,46,2.60
2008,06,11,04,47,3.00
2008,06,11,04,48,3.00
2008,06,11,04,49,2.90
2008,06,11,04,50,2.10
2008,06,11,04,51,2.10
2008,06,11,04,52,3.40
2008,06,11,04,53,1.30
2008,06,11,04,54,2.70
2008,06,11,04,55,2.80
2008,06,11,04,56,1.70
2008,06,11,04,57,0.50
2008,06,11,04,58,1.00
2008,06,11,04,59,1.40
2008,06,11,05,00,1.20
2008,06,11,05,01,2.20
2008,06,11,05,02,0.40
2008,06,11,05,03,0.90
2008,06,11,05,04,2.10
2008,06,11,05,05,2.70
2008,06,11,05,06,3.20
2008,06,11,05,07,2.50
2008,06,11,05,08,4.30
2008,06,11,05,09,5.20
2008,06,11,05,10,4.20
2008,06,11,05,11,3.10
2008,06,11,05,12,4.20
2008,06,11,05,13,3.80
2008,06,11,05,14,2.00
2008,06,11,05,15,1.50
2008,06,11,05,16,2.50
2008,06,11,05,17,2.70
2008,06,11,05,18,1.60
2008,06,11,05,19,3.50
2008,06,11,05,20,2.20
2008,06,11,05,21,3.00
2008,06,11,05,22,2.40
2008,06,11,05,23,4.30
2008,06,11,05,24,3.30
2008,06,11,05,25,3.00
2008,06,11,05,26,2.40
2008,06,11,05,27,2.90
2008,06,11,05,28,1.80
2008,06,11,05,29,3.10
2008,06,11,05,30,0.90
2008,06,11,05,31,1.10
2008,06,11,05,32,1.60
2008,06,11,05,33,1.60
2008,06,11,05,34,1.20
2008,06,11,05,35,2.30
2008,06,11,05,36,2.30
2008,06,11,05,37,2.30
2008,06,11,05,38,1.30
2008,06,11,05,39,0.60
2008,06,11,05,40,1.20
2008,06,11,05,41,1.80
2008,06,11,05,42,1.50
2008,06,11,05,43,1.10
2008,06,11,05,44,1.20
2008,06,11,05,45,2.00
2008,06,11,05,46,0.80
2008,06,11,05,47,1.10
2008,06,11,05,48,1.60
2008,06,11,05,49,3.20
2008,06,11,05,50,1.30
2008,06,11,05,51,0.50
2008,06,11,05,52,1.00
2008,06,11,05,53,0.10
2008,06,11,05,54,0.30
2008,06,11,05,55,0.00
2008,06,11,05,56,0.70
2008,06,11,05,57,0.00
2008,06,11,05,58,0.00
2008,06,11,05,59,0.30
2008,06,11,06,00,0.10
2008,06,11,06,01,0.20
2008,06,11,06,02,0.10
2008,06,11,06,03,2.10
2008,06,11,06,04,1.90
2008,06,11,06,05,1.80
2008,06,11,06,06,4.10
2008,06,11,06,07,3.10
2008,06,11,06,08,1.00
2008,06,11,06,09,3.30
2008,06,11,06,10,0.40
2008,06,11,06,11,2.40
2008,06,11,06,12,2.30
2008,06,11,06,13,4.00
2008,06,11,06,14,1.90
2008,06,11,06,15,4.50
2008,06,11,06,16,1.70
2008,06,11,06,17,3.00
2008,06,11,06,18,3.50
2008,06,11,06,19,3.10
2008,06,11,06,20,4.00
2008,06,11,06,21,4.90
2008,06,11,06,22,3.90
2008,06,11,06,23,3.70
2008,06,11,06,24,4.40
2008,06,11,06,25,4.20
2008,06,11,06,26,4.60
2008,06,11,06,27,2.70
2008,06,11,06,28,2.80
2008,06,11,06,29,2.10
2008,06,11,06,30,3.50
2008,06,11,06,31,3.00
2008,06,11,06,32,2.10
2008,06,11,06,33,2.50
2008,06,11,06,34,2.10
2008,06,11,06,35,2.30
2008,06,11,06,36,2.90
2008,06,11,06,37,0.30
2008,06,11,06,38,1.00
2008,06,11,06,39,2.10
2008,06,11,06,40,0.10
2008,06,11,06,41,1.20
2008,06,11,06,42,0.10
2008,06,11,06,43,0.00
2008,06,11,06,44,0.20
2008,06,11,06,45,0.90
2008,06,11,06,46,0.80
2008,06,11,06,47,0.00
2008,06,11,06,48,0.80
2008,06,11,06,49,0.90
2008,06,11,06,50,1.60
2008,06,11,06,51,4.60
2008,06,11,06,52,5.50
2008,06,11,06,53,3.70
2008,06,11,06,54,2.60
2008,06,11,06,55,3.80
2008,06,11,06,56,2.60
2008,06,11,06,57,3.80
2008,06,11,06,58,3.60
2008,06,11,06,59,2.50
2008,06,11,07,00,0.40
2008,06,11,07,01,2.40
2008,06,11,07,02,3.90
2008,06,11,07,03,2.60
2008,06,11,07,04,2.00
2008,06,11,07,05,2.20
2008,06,11,07,06,2.90
2008,06,11,07,07,2.30
2008,06,11,07,08,3.20
2008,06,11,07,09,2.30
2008,06,11,07,10,3.60
2008,06,11,07,11,5.40
2008,06,11,07,12,4.50
2008,06,11,07,13,4.70
2008,06,11,07,14,2.70
2008,06,11,07,15,1.80
2008,06,11,07,16,1.10
2008,06,11,07,17,2.70
2008,06,11,07,18,1.20
2008,06,11,07,19,0.90
2008,06,11,07,20,0.40
2008,06,11,07,21,0.10
2008,06,11,07,22,0.80
2008,06,11,07,23,1.20
2008,06,11,07,24,0.40
2008,06,11,07,25,1.80
2008,06,11,07,26,0.30
2008,06,11,07,27,0.80
2008,06,11,07,28,0.90
2008,06,11,07,29,1.20
2008,06,11,07,30,1.30
2008,06,11,07,31,3.90
2008,06,11,07,32,2.60
2008,06,11,07,33,1.80
2008,06,11,07,34,1.80
2008,06,11,07,35,2.40
2008,06,11,07,36,2.70
2008,06,11,07,37,1.30
2008,06,11,07,38,2.40
2008,06,11,07,39,1.00
2008,06,11,07,40,1.00
2008,06,11,07,41,1.70
2008,06,11,07,42,0.10
2008,06,11,07,43,0.00
2008,06,11,07,44,2.10
2008,06,11,07,45,2.60
2008,06,11,07,46,2.90
2008,06,11,07,47,1.60
2008,06,11,07,48,0.00
2008,06,11,07,49,1.10
2008,06,11,07,50,2.90
2008,06,11,07,51,3.90
2008,06,11,07,52,1.50
2008,06,11,07,53,0.30
2008,06,11,07,54,0.20
2008,06,11,07,55,1.60
2008,06,11,07,56,1.90
2008,06,11,07,57,1.00
2008,06,11,07,58,1.70
2008,06,11,07,59,3.10
2008,06,11,08,00,2.50
2008,06,11,08,01,2.20
2008,06,11,08,02,1.40
2008,06,11,08,03,2.00
2008,06,11,08,04,0.60
2008,06,11,08,05,1.10
2008,06,11,08,06,2.60
2008,06,11,08,07,3.70
2008,06,11,08,08,1.10
2008,06,11,08,09,1.00
2008,06,11,08,10,0.50
2008,06,11,08,11,1.50
2008,06,11,08,12,1.30
2008,06,11,08,13,4.50
2008,06,11,08,14,3.40
2008,06,11,08,15,1.80
2008,06,11,08,16,1.00
2008,06,11,08,17,3.50
2008,06,11,08,18,1.00
2008,06,11,08,19,3.80
2008,06,11,08,20,4.50
2008,06,11,08,21,4.80
2008,06,11,08,22,1.60
2008,06,11,08,23,0.90
2008,06,11,08,24,1.30
2008,06,11,08,25,1.40
2008,06,11,08,26,5.10
2008,06,11,08,27,3.50
2008,06,11,08,28,4.30
2008,06,11,08,29,3.90
2008,06,11,08,30,2.50
2008,06,11,08,31,1.50
2008,06,11,08,32,3.70
2008,06,11,08,33,3.80
2008,06,11,08,34,0.90
2008,06,11,08,35,0.60
2008,06,11,08,36,1.00
2008,06,11,08,37,1.70
2008,06,11,08,38,2.10
2008,06,11,08,39,1.70
2008,06,11,08,40,0.10
2008,06,11,08,41,0.30
2008,06,11,08,42,1.20
2008,06,11,08,43,1.00
2008,06,11,08,44,3.00
2008,06,11,08,45,1.90
2008,06,11,08,46,0.80
2008,06,11,08,47,0.20
2008,06,11,08,48,0.90
2008,06,11,08,49,0.00
2008,06,11,08,50,0.00
2008,06,11,08,51,0.10
2008,06,11,08,52,0.00
2008,06,11,08,53,0.70
2008,06,11,08,54,1.20
2008,06,11,08,55,0.00
2008,06,11,08,56,0.50
2008,06,11,08,57,0.00
2008,06,11,08,58,0.00
2008,06,11,08,59,0.00
2008,06,11,09,00,0.00
2008,06,11,09,01,0.00
2008,06,11,09,02,0.00
2008,06,11,09,03,0.00
2008,06,11,09,04,1.90
2008,06,11,09,05,3.20
2008,06,11,09,06,2.90
2008,06,11,09,07,2.00
2008,06,11,09,08,2.70
2008,06,11,09,09,3.70
2008,06,11,09,10,3.70
2008,06,11,09,11,3.90
2008,06,11,09,12,3.30
2008,06,11,09,13,5.60
2008,06,11,09,14,4.00
2008,06,11,09,15,6.20
2008,06,11,09,16,5.20
2008,06,11,09,17,2.90
2008,06,11,09,18,4.60
2008,06,11,09,19,5.30
2008,06,11,09,20,4.00
2008,06,11,09,21,4.70
2008,06,11,09,22,5.40
2008,06,11,09,23,2.40
2008,06,11,09,24,0.00
2008,06,11,09,25,0.70
2008,06,11,09,26,0.20
2008,06,11,09,27,1.30
2008,06,11,09,28,1.90
2008,06,11,09,29,1.80
2008,06,11,09,30,1.30
2008,06,11,09,31,2.70
2008,06,11,09,32,0.90
2008,06,11,09,33,1.10
2008,06,11,09,34,1.10
2008,06,11,09,35,1.40
2008,06,11,09,36,0.50
2008,06,11,09,37,1.20
2008,06,11,09,38,4.40
2008,06,11,09,39,3.80
2008,06,11,09,40,2.60
2008,06,11,09,41,1.30
2008,06,11,09,42,0.00
2008,06,11,09,43,1.50
2008,06,11,09,44,2.50
2008,06,11,09,45,4.30
2008,06,11,09,46,1.40
2008,06,11,09,47,0.10
2008,06,11,09,48,1.30
2008,06,11,09,49,2.60
2008,06,11,09,50,0.00
2008,06,11,09,51,2.30
2008,06,11,09,52,2.40
2008,06,11,09,53,3.40
2008,06,11,09,54,3.70
2008,06,11,09,55,2.00
2008,06,11,09,56,1.60
2008,06,11,09,57,3.10
2008,06,11,09,58,1.90
2008,06,11,09,59,0.10
2008,06,11,10,00,0.00
2008,06,11,10,01,0.10
2008,06,11,10,02,0.80
2008,06,11,10,03,0.60
2008,06,11,10,04,2.20
2008,06,11,10,05,3.10
2008,06,11,10,06,0.70
2008,06,11,10,07,3.30
2008,06,11,10,08,1.40
2008,06,11,10,09,0.90
2008,06,11,10,10,1.50
2008,06,11,10,11,1.70
2008,06,11,10,12,3.30
2008,06,11,10,13,3.50
2008,06,11,10,14,1.50
2008,06,11,10,15,0.00
2008,06,11,10,16,0.00
2008,06,11,10,17,0.20
2008,06,11,10,18,0.20
2008,06,11,10,19,2.20
2008,06,11,10,20,1.10
2008,06,11,10,21,3.60
2008,06,11,10,22,3.00
2008,06,11,10,23,1.60
2008,06,11,10,24,1.60
2008,06,11,10,25,0.00
2008,06,11,10,26,0.60
2008,06,11,10,27,3.10
2008,06,11,10,28,4.60
2008,06,11,10,29,0.60
2008,06,11,10,30,1.50
2008,06,11,10,31,1.20
2008,06,11,10,32,1.00
2008,06,11,10,33,0.10
2008,06,11,10,34,0.30
2008,06,11,10,35,0.50
2008,06,11,10,36,0.20
2008,06,11,10,37,3.50
2008,06,11,10,38,0.60
2008,06,11,10,39,2.10
2008,06,11,10,40,1.90
2008,06,11,10,41,0.40
2008,06,11,10,42,0.00
2008,06,11,10,43,0.80
2008,06,11,10,44,2.30
2008,06,11,10,45,0.90
2008,06,11,10,46,1.30
2008,06,11,10,47,1.80
2008,06,11,10,48,2.00
2008,06,11,10,49,2.00
2008,06,11,10,50,0.60
2008,06,11,10,51,0.00
2008,06,11,10,52,0.20
2008,06,11,10,53,0.00
2008,06,11,10,54,0.00
2008,06,11,10,55,0.00
2008,06,11,10,56,0.00
2008,06,11,10,57,0.10
2008,06,11,10,58,0.00
2008,06,11,10,59,0.40
2008,06,11,11,00,0.60
2008,06,11,11,01,1.50
2008,06,11,11,02,0.00
2008,06,11,11,03,0.00
2008,06,11,11,04,0.50
2008,06,11,11,05,0.00
2008,06,11,11,06,0.00
2008,06,11,11,07,0.30
2008,06,11,11,08,1.00
2008,06,11,11,09,0.40
2008,06,11,11,10,0.10
2008,06,11,11,11,0.30
2008,06,11,11,12,1.20
2008,06,11,11,13,1.60
2008,06,11,11,14,0.80
2008,06,11,11,15,0.10
2008,06,11,11,16,0.00
2008,06,11,11,17,0.00
2008,06,11,11,18,0.00
2008,06,11,11,19,0.10
2008,06,11,11,20,1.40
2008,06,11,11,21,0.00
2008,06,11,11,22,0.00
2008,06,11,11,23,0.00
2008,06,11,11,24,0.00
2008,06,11,11,25,0.00
2008,06,11,11,26,0.00
2008,06,11,11,27,1.40
2008,06,11,11,28,4.10
2008,06,11,11,29,5.10
2008,06,11,11,30,4.20
2008,06,11,11,31,4.90
2008,06,11,11,32,4.10
2008,06,11,11,33,3.90
2008,06,11,11,34,3.60
2008,06,11,11,35,2.50
2008,06,11,11,36,2.20
2008,06,11,11,37,2.10
2008,06,11,11,38,0.80
2008,06,11,11,39,0.00
2008,06,11,11,40,0.00
2008,06,11,11,41,0.60
2008,06,11,11,42,0.00
2008,06,11,11,43,0.70
2008,06,11,11,44,3.70
2008,06,11,11,45,3.40
2008,06,11,11,46,3.80
2008,06,11,11,47,2.60
2008,06,11,11,48,4.20
2008,06,11,11,49,3.90
2008,06,11,11,50,3.70
2008,06,11,11,51,2.20
2008,06,11,11,52,0.40
2008,06,11,11,53,0.10
2008,06,11,11,54,0.10
2008,06,11,11,55,0.00
2008,06,11,11,56,0.00
2008,06,11,11,57,1.90
2008,06,11,11,58,3.20
2008,06,11,11,59,1.20
2008,06,11,12,00,2.20
2008,06,11,12,01,3.10
2008,06,11,12,02,2.40
2008,06,11,12,03,0.40
2008,06,11,12,04,2.00
2008,06,11,12,05,1.30
2008,06,11,12,06,0.20
2008,06,11,12,07,0.40
2008,06,11,12,08,0.20
2008,06,11,12,09,0.00
2008,06,11,12,10,0.00
2008,06,11,12,11,0.00
2008,06,11,12,12,0.00
2008,06,11,12,13,0.00
2008,06,11,12,14,0.60
2008,06,11,12,15,0.00
2008,06,11,12,16,0.00
2008,06,11,12,17,0.00
2008,06,11,12,18,0.00
2008,06,11,12,19,0.00
2008,06,11,12,20,0.00
2008,06,11,12,21,0.00
2008,06,11,12,22,0.00
2008,06,11,12,23,0.00
2008,06,11,12,24,0.00
2008,06,11,12,25,0.00
2008,06,11,12,26,0.00
2008,06,11,12,27,0.00
2008,06,11,12,28,0.00
2008,06,11,12,29,0.40
2008,06,11,12,30,0.40
2008,06,11,12,31,1.00
2008,06,11,12,32,0.00
2008,06,11,12,33,0.00
2008,06,11,12,34,0.20
2008,06,11,12,35,1.30
2008,06,11,12,36,0.80
2008,06,11,12,37,0.70
2008,06,11,12,38,1.20
2008,06,11,12,39,0.20
2008,06,11,12,40,1.50
2008,06,11,12,41,0.10
2008,06,11,12,42,0.00
2008,06,11,12,43,0.10
2008,06,11,12,44,3.50
2008,06,11,12,45,2.30
2008,06,11,12,46,2.50
2008,06,11,12,47,3.20
2008,06,11,12,48,1.80
2008,06,11,12,49,1.50
2008,06,11,12,50,2.00
2008,06,11,12,51,2.20
2008,06,11,12,52,1.20
2008,06,11,12,53,1.00
2008,06,11,12,54,4.50
2008,06,11,12,55,1.30
2008,06,11,12,56,3.30
2008,06,11,12,57,3.20
2008,06,11,12,58,4.30
2008,06,11,12,59,1.70
2008,06,11,13,00,2.70
2008,06,11,13,01,2.30
2008,06,11,13,02,4.10
2008,06,11,13,03,5.00
2008,06,11,13,04,5.30
2008,06,11,13,05,5.80
2008,06,11,13,06,4.60
2008,06,11,13,07,3.30
2008,06,11,13,08,2.50
2008,06,11,13,09,2.10
2008,06,11,13,10,2.50
2008,06,11,13,11,3.10
2008,06,11,13,12,1.30
2008,06,11,13,13,1.50
2008,06,11,13,14,0.40
2008,06,11,13,15,1.40
2008,06,11,13,16,2.70
2008,06,11,13,17,1.10
2008,06,11,13,18,2.70
2008,06,11,13,19,3.40
2008,06,11,13,20,3.60
2008,06,11,13,21,4.50
2008,06,11,13,22,1.10
2008,06,11,13,23,4.10
2008,06,11,13,24,2.20
2008,06,11,13,25,2.10
2008,06,11,13,26,1.00
2008,06,11,13,27,3.90
2008,06,11,13,28,4.40
2008,06,11,13,29,5.40
2008,06,11,13,30,6.10
2008,06,11,13,31,5.80
2008,06,11,13,32,1.30
2008,06,11,13,33,3.20
2008,06,11,13,34,3.00
2008,06,11,13,35,1.80
2008,06,11,13,36,2.30
2008,06,11,13,37,2.40
2008,06,11,13,38,1.70
2008,06,11,13,39,2.10
2008,06,11,13,40,0.80
2008,06,11,13,41,0.50
2008,06,11,13,42,1.30
2008,06,11,13,43,3.80
2008,06,11,13,44,4.30
2008,06,11,13,45,1.40
2008,06,11,13,46,0.20
2008,06,11,13,47,1.10
2008,06,11,13,48,3.70
2008,06,11,13,49,3.20
2008,06,11,13,50,2.30
2008,06,11,13,51,4.90
2008,06,11,13,52,2.40
2008,06,11,13,53,1.00
2008,06,11,13,54,2.90
2008,06,11,13,55,3.50
2008,06,11,13,56,3.70
2008,06,11,13,57,1.90
2008,06,11,13,58,0.10
2008,06,11,13,59,0.10
2008,06,11,14,00,0.10
2008,06,11,14,01,3.50
2008,06,11,14,02,0.90
2008,06,11,14,03,1.70
2008,06,11,14,04,1.10
2008,06,11,14,05,0.40
2008,06,11,14,06,0.70
2008,06,11,14,07,3.80
2008,06,11,14,08,5.00
2008,06,11,14,09,5.70
2008,06,11,14,10,3.10
2008,06,11,14,11,1.10
2008,06,11,14,12,4.50
2008,06,11,14,13,0.50
2008,06,11,14,14,0.30
2008,06,11,14,15,2.80
2008,06,11,14,16,1.40
2008,06,11,14,17,3.60
2008,06,11,14,18,2.90
2008,06,11,14,19,0.00
2008,06,11,14,20,2.80
2008,06,11,14,21,4.50
2008,06,11,14,22,4.00
2008,06,11,14,23,4.30
2008,06,11,14,24,9.60
2008,06,11,14,25,4.20
2008,06,11,14,26,3.90
2008,06,11,14,27,6.60
2008,06,11,14,28,6.70
2008,06,11,14,29,6.40
2008,06,11,14,30,9.30
2008,06,11,14,31,7.80
2008,06,11,14,32,8.80
2008,06,11,14,33,4.80
2008,06,11,14,34,6.30
2008,06,11,14,35,7.20
2008,06,11,14,36,9.10
2008,06,11,14,37,6.50
2008,06,11,14,38,6.90
2008,06,11,14,39,7.30
2008,06,11,14,40,5.50
2008,06,11,14,41,3.00
2008,06,11,14,42,4.70
2008,06,11,14,43,3.80
2008,06,11,14,44,6.70
2008,06,11,14,45,3.60
2008,06,11,14,46,4.60
2008,06,11,14,47,5.00
2008,06,11,14,48,2.50
2008,06,11,14,49,2.80
2008,06,11,14,50,3.60
2008,06,11,14,51,4.30
2008,06,11,14,52,4.70
2008,06,11,14,53,3.80
2008,06,11,14,54,1.30
2008,06,11,14,55,6.40
2008,06,11,14,56,3.90
2008,06,11,14,57,2.60
2008,06,11,14,58,3.70
2008,06,11,14,59,3.30
2008,06,11,15,00,4.10
2008,06,11,15,01,1.30
2008,06,11,15,02,2.20
2008,06,11,15,03,2.10
2008,06,11,15,04,0.90
2008,06,11,15,05,5.10
2008,06,11,15,06,2.30
2008,06,11,15,07,2.40
2008,06,11,15,08,4.50
2008,06,11,15,09,3.20
2008,06,11,15,10,6.50
2008,06,11,15,11,5.70
2008,06,11,15,12,6.20
2008,06,11,15,13,3.20
2008,06,11,15,14,8.60
2008,06,11,15,15,7.80
2008,06,11,15,16,6.10
2008,06,11,15,17,6.20
2008,06,11,15,18,5.30
2008,06,11,15,19,4.80
2008,06,11,15,20,5.40
2008,06,11,15,21,8.30
2008,06,11,15,22,5.20
2008,06,11,15,23,7.80
2008,06,11,15,24,8.40
2008,06,11,15,25,10.20
2008,06,11,15,26,9.80
2008,06,11,15,27,11.50
2008,06,11,15,28,9.70
2008,06,11,15,29,7.80
2008,06,11,15,30,6.60
2008,06,11,15,31,4.80
2008,06,11,15,32,6.00
2008,06,11,15,33,6.60
2008,06,11,15,34,5.90
2008,06,11,15,35,8.10
2008,06,11,15,36,7.50
2008,06,11,15,37,6.50
2008,06,11,15,38,4.80
2008,06,11,15,39,7.20
2008,06,11,15,40,6.70
2008,06,11,15,41,10.00
2008,06,11,15,42,11.30
2008,06,11,15,43,6.30
2008,06,11,15,44,7.30
2008,06,11,15,45,4.50
2008,06,11,15,46,3.50
2008,06,11,15,47,1.20
2008,06,11,15,48,4.40
2008,06,11,15,49,7.90
2008,06,11,15,50,6.20
2008,06,11,15,51,3.60
2008,06,11,15,52,1.10
2008,06,11,15,53,1.50
2008,06,11,15,54,5.40
2008,06,11,15,55,2.60
2008,06,11,15,56,4.70
2008,06,11,15,57,6.00
2008,06,11,15,58,3.60
2008,06,11,15,59,4.10
2008,06,11,16,00,5.00
2008,06,11,16,01,4.90
2008,06,11,16,02,4.50
2008,06,11,16,03,5.20
2008,06,11,16,04,2.30
2008,06,11,16,05,3.00
2008,06,11,16,06,3.20
2008,06,11,16,07,3.80
2008,06,11,16,08,4.10
2008,06,11,16,09,5.40
2008,06,11,16,10,4.60
2008,06,11,16,11,3.20
2008,06,11,16,12,5.30
2008,06,11,16,13,5.80
2008,06,11,16,14,5.70
2008,06,11,16,15,3.10
2008,06,11,16,16,3.10
2008,06,11,16,17,4.70
2008,06,11,16,18,5.10
2008,06,11,16,19,3.50
2008,06,11,16,20,3.90
2008,06,11,16,21,6.10
2008,06,11,16,22,5.90
2008,06,11,16,23,3.50
2008,06,11,16,24,3.20
2008,06,11,16,25,4.60
2008,06,11,16,26,6.30
2008,06,11,16,27,4.80
2008,06,11,16,28,7.80
2008,06,11,16,29,6.40
2008,06,11,16,30,4.40
2008,06,11,16,31,5.50
2008,06,11,16,32,6.40
2008,06,11,16,33,7.10
2008,06,11,16,34,6.90
2008,06,11,16,35,10.00
2008,06,11,16,36,4.10
2008,06,11,16,37,6.70
2008,06,11,16,38,3.20
2008,06,11,16,39,2.40
2008,06,11,16,40,3.00
2008,06,11,16,41,7.30
2008,06,11,16,42,5.70
2008,06,11,16,43,4.80
2008,06,11,16,44,4.70
2008,06,11,16,45,3.10
2008,06,11,16,46,0.90
2008,06,11,16,47,2.60
2008,06,11,16,48,4.50
2008,06,11,16,49,5.10
2008,06,11,16,50,2.90
2008,06,11,16,51,5.80
2008,06,11,16,52,4.30
2008,06,11,16,53,2.60
2008,06,11,16,54,6.30
2008,06,11,16,55,5.40
2008,06,11,16,56,3.10
2008,06,11,16,57,4.40
2008,06,11,16,58,3.30
2008,06,11,16,59,2.40
2008,06,11,17,00,1.50
2008,06,11,17,01,1.40
2008,06,11,17,02,3.80
2008,06,11,17,03,4.80
2008,06,11,17,04,1.90
2008,06,11,17,05,5.10
2008,06,11,17,06,5.30
2008,06,11,17,07,4.80
2008,06,11,17,08,4.60
2008,06,11,17,09,5.90
2008,06,11,17,10,6.40
2008,06,11,17,11,2.70
2008,06,11,17,12,1.60
2008,06,11,17,13,4.00
2008,06,11,17,14,2.40
2008,06,11,17,15,2.10
2008,06,11,17,16,3.80
2008,06,11,17,17,2.60
2008,06,11,17,18,4.80
2008,06,11,17,19,4.50
2008,06,11,17,20,4.90
2008,06,11,17,21,5.00
2008,06,11,17,22,4.40
2008,06,11,17,23,3.30
2008,06,11,17,24,3.60
2008,06,11,17,25,5.70
2008,06,11,17,26,5.50
2008,06,11,17,27,3.70
2008,06,11,17,28,6.90
2008,06,11,17,29,10.00
2008,06,11,17,30,5.00
2008,06,11,17,31,4.10
2008,06,11,17,32,6.40
2008,06,11,17,33,9.10
2008,06,11,17,34,5.00
2008,06,11,17,35,8.00
2008,06,11,17,36,5.80
2008,06,11,17,37,6.00
2008,06,11,17,38,4.20
2008,06,11,17,39,4.30
2008,06,11,17,40,4.40
2008,06,11,17,41,7.50
2008,06,11,17,42,6.20
2008,06,11,17,43,3.90
2008,06,11,17,44,6.40
2008,06,11,17,45,6.60
2008,06,11,17,46,8.10
2008,06,11,17,47,11.30
2008,06,11,17,48,9.90
2008,06,11,17,49,6.60
2008,06,11,17,50,5.30
2008,06,11,17,51,7.00
2008,06,11,17,52,7.60
2008,06,11,17,53,8.20
2008,06,11,17,54,7.20
2008,06,11,17,55,10.50
2008,06,11,17,56,8.10
2008,06,11,17,57,7.30
2008,06,11,17,58,6.80
2008,06,11,17,59,10.70
2008,06,11,18,00,10.50
2008,06,11,18,01,9.00
2008,06,11,18,02,6.60
2008,06,11,18,03,10.10
2008,06,11,18,04,6.20
2008,06,11,18,05,5.10
2008,06,11,18,06,4.30